Location: NJAA Observatory
(40.6819°N, 74.8979°W)
Time: 21:54:28
(UTC-05:00)

Daily predictions for brighter satellites

Satellite Brightness Start Highest point End
(mag) Time Altitude Azimuth Time Altitude Azimuth Time Altitude Azimuth
GEOS 3 Rocket 4.3 17:58:18 10° NE 18:03:09 37° ESE 18:08:01 10° S
ALOS 3.5 18:01:11 10° ESE 18:04:38 21° ENE 18:08:06 10° NNE
Meteor 1-14 Rocket 4.4 18:01:29 10° S 18:07:19 62° E 18:13:14 10° NNE
SJ-6B 3.7 18:04:47 10° SE 18:08:15 28° ENE 18:11:42 10° N
Cosmos 2082 Rocket 4.0 18:07:56 10° WSW 18:13:01 33° WNW 18:18:10 10° N
Cosmos 1484 Rocket 3.7 18:11:17 10° S 18:15:13 56° W 18:19:07 10° NNW
Cosmos 1461 4.1 18:13:13 10° N 18:16:26 22° NE 18:19:41 10° E
SL-16 R/B 2.6 18:12:12 10° N 18:17:35 42° ENE 18:22:56 10° SE
CENTAUR R/B 3.2 18:11:52 10° NW 18:19:48 89° SW 18:28:12 10° SSE
Cosmos 2360 4.3 18:14:50 10° NNW 18:20:36 85° WSW 18:26:20 10° SSE
Meteor 1-20 Rocket 4.5 18:17:28 10° SSE 18:23:02 50° E 18:28:41 10° NNE
Cosmos 1633 4.1 18:26:14 10° SE 18:28:41 17° E 18:31:09 10° NE
NOSS 2-2 (E) 4.0 18:25:44 10° SW 18:29:45 61° NW 18:34:26 10° NNE
HJ-1C 4.3 18:28:23 10° SE 18:31:20 28° ENE 18:34:17 10° NNE
SKYMED 2 4.4 18:27:17 10° N 18:31:32 54° WNW 18:35:46 10° SSW
Cosmos 1975 Rocket 3.3 18:27:38 10° NNW 18:31:57 74° W 18:36:15 10° S
Cosmos 44 Rocket 3.3 18:27:18 10° NNW 18:32:05 85° WSW 18:36:45 10° SSE
Cosmos 2322 Rocket 2.2 18:31:33 10° NNW 18:37:08 62° ENE 18:42:40 10° SE
Okean 1 3.7 18:33:33 10° N 18:37:26 43° E 18:41:18 10° SSE
Cosmos 1340 3.7 18:37:26 10° NNE 18:40:37 25° ENE 18:43:11 13° SE
Nadezhda 1 Rocket 4.0 18:38:34 10° N 18:44:42 88° W 18:50:46 10° S
CZ-2D R/B 4.3 18:47:17 22° E 18:48:18 24° ENE 18:51:26 10° NNE
Tiangong 2 1.0 18:46:34 10° WNW 18:49:39 69° N 18:50:56 31° E
Cosmos 1818 3.8 18:44:27 10° S 18:49:39 48° ESE 18:54:44 11° NE
Meteor 1-25 Rocket 4.3 18:44:57 10° S 18:50:32 83° W 18:56:14 10° N
Cosmos 1536 Rocket 3.7 18:46:22 10° N 18:50:45 53° E 18:55:07 10° SSE
Resurs 01 Rocket 1.8 18:48:04 10° SE 18:52:17 46° ENE 18:56:31 10° N
Cosmos 2181 Rocket 4.2 18:46:50 10° N 18:52:49 47° ENE 18:58:50 10° SSE
DNEPR-1 R/B 3.4 18:50:28 10° NNW 18:54:43 66° NE 18:58:09 15° SE
Helios 1B rocket 3.9 18:56:57 20° SE 18:56:57 20° SE 18:58:55 10° SSE
Meteor 2-4 Rocket 4.5 18:51:09 10° NNE 18:55:55 28° ENE 18:58:03 22° ESE
COSMOS 2428 4.1 18:52:25 10° N 18:56:17 18° NE 18:56:57 18° ENE
Meteor 1-11 Rocket 4.1 18:53:53 10° SSE 18:59:13 42° E 19:04:42 10° NNE
Cosmos 44 3.3 18:56:32 10° NW 19:00:57 69° WSW 19:05:12 10° SSE
H-2A R/B 2.9 18:58:38 14° SE 19:01:34 46° ENE 19:05:09 10° N
FENGYUN 3A 3.6 18:57:03 10° SSE 19:02:26 75° ENE 19:07:51 10° N
DELTA 2 R/B (1) 3.6 18:57:15 10° W 19:02:52 81° S 19:05:58 27° E
Cosmos 1812 4.0 19:07:49 10° NNW 19:11:29 42° W 19:15:07 10° SSW
Cosmos 676 Rocket 3.8 19:10:11 10° SSW 19:15:21 80° ESE 19:20:35 10° NNE
Cosmos 2074 Rocket 4.4 19:09:54 10° SSE 19:15:32 37° E 19:21:13 10° NNE
Cosmos 407 Rocket 3.8 19:10:33 10° SSW 19:15:45 71° WNW 19:21:04 10° NNE
Cosmos 1709 Rocket 3.9 19:10:55 10° S 19:17:10 90° E 19:23:23 10° N
Resurs 1-3 3.4 19:15:34 10° SSE 19:19:55 79° ENE 19:24:20 10° N
Cosmos 1300 Rocket 3.4 19:20:17 10° S 19:24:40 79° E 19:29:06 10° N
ATLAS 2A CENTAUR R/B 4.1 19:25:42 10° SSW 19:28:13 15° SSE 19:29:17 15° SSE
Cosmos 2360 Rocket 2.1 19:25:06 10° NNW 19:30:44 65° ENE 19:32:44 40° SE
Cosmos 1602 3.9 19:30:08 10° SSW 19:33:58 72° W 19:37:52 10° N
Cosmos 2219 Rocket 3.8 19:30:47 10° N 19:33:20 18° NNE 19:33:20 18° NNE
SAR-Lupe-4 3.7 19:36:35 66° NNW 19:36:35 66° NNW 19:39:44 10° NNW
ALOS 3.6 19:37:25 10° SSW 19:41:47 40° W 19:46:12 10° NNW
Cosmos 1140 Rocket 3.3 19:41:24 10° SSW 19:46:32 88° WNW 19:49:24 27° NNE
Cosmos 1833 4.2 19:41:12 10° SSW 19:46:55 79° WNW 19:51:45 15° NNE
Cosmos 1238 Rocket 4.3 19:45:06 10° NNW 19:46:37 23° NW 19:46:37 23° NW
Spot 1 4.1 19:49:08 71° W 19:49:08 71° W 19:53:10 10° NNW
Spot 2 Rocket 4.4 19:44:38 10° S 19:49:29 48° W 19:54:24 10° NNW
Okean 1 Rocket 3.3 19:47:05 10° SSW 19:51:32 69° W 19:56:02 10° N
Cosmos 2333 Rocket 3.9 19:47:48 10° N 19:50:09 19° NNE 19:50:09 19° NNE
Cosmos 1461 4.3 19:51:59 10° NW 19:55:39 34° WSW 19:56:31 31° SW
SL-16 R/B 4.1 19:56:45 10° NW 20:01:26 27° WSW 20:06:06 10° SSW
Helios 1A 3.7 20:02:04 52° W 20:02:04 52° W 20:05:53 10° NNW
Okean 1-7 Rocket 4.3 19:58:24 10° NNW 20:01:49 49° NNW 20:01:49 49° NNW
Cosmos 614 Rocket 4.1 19:58:28 10° SSW 20:02:46 63° SW 20:02:46 63° SW
Envisat 3.9 20:07:28 38° N 20:07:28 38° N 20:10:37 10° N
USA 229 DEB 4.1 20:03:59 10° NNW 20:10:23 48° NE 20:10:23 48° NE
USA 229 4.1 20:04:04 10° NNW 20:10:27 48° NE 20:10:27 48° NE
Resurs 01 Rocket 4.5 20:26:21 10° SW 20:28:59 16° W 20:31:38 10° NW
COSMOS 2428 3.8 20:35:29 10° NNW 20:39:00 39° NW 20:39:00 39° NW
Cosmos 2237 Rocket 4.4 20:50:53 10° NNW 20:52:08 17° N 20:52:08 17° N
Cosmos 2219 Rocket 4.5 21:13:45 10° NNW 21:15:05 18° NNW 21:15:05 18° NNW
